Location: Jaite
(41.2884°N, 81.5737°W)
Time: 08:27:51
(UTC+00:00)

Cosmos 2058 - Pass Details

Date: 15 November 2025
Orbit: 529 x 540 km, 82.5° (Epoch: 13 December)

Event Time Altitude Azimuth Distance (km) Brightness Sun altitude
Rises 00:27:13 0° 343° (NNW) 2,701 6.5 -26.3°
Reaches altitude 10° 00:29:28 10° 336° (NNW) 1,807 5.7 -26.7°
Maximum altitude 00:33:09 38° 268° (W) 843 4.2 -27.4°
Drops below altitude 10° 00:36:49 10° 200° (SSW) 1,799 5.6 -28.1°
Sets 00:39:04 0° 192° (SSW) 2,687 6.5 -28.5°
